UAL1458 KLAX-KSMF

Flight info

Callsign UAL1458
Flight time 1h 8m
Altitude 38000
Route LADYJ4 CSTRO NURAY SUUTR4
Aircraft B738/M-SDE2E3FGHIRWXY/LB1

Departure

Time 2026-04-25 04:17
Airport Los Angeles International Airport (KLAX)

Arrival

Time 2026-04-25 05:25
Airport Sacramento International Airport (KSMF)
Time Latitude Longitude Altitude Speed Heading
2026-04-25 03:51 33.93986 -118.40192 122 ft 0 kts 26°
2026-04-25 04:09 33.93979 -118.40196 120 ft 2 kts 27°
2026-04-25 04:10 33.93965 -118.40205 121 ft 2 kts 27°
2026-04-25 04:10 33.93950 -118.40215 121 ft 2 kts 33°
2026-04-25 04:10 33.93938 -118.40228 121 ft 2 kts 70°
2026-04-25 04:10 33.93937 -118.40236 127 ft 0 kts 78°
2026-04-25 04:12 33.93937 -118.40230 125 ft 2 kts 82°
2026-04-25 04:12 33.93938 -118.40220 122 ft 1 kts 82°
2026-04-25 04:12 33.93945 -118.40158 124 ft 12 kts 83°
2026-04-25 04:13 33.93931 -118.40060 122 ft 12 kts 138°
2026-04-25 04:13 33.93885 -118.39980 123 ft 12 kts 94°
2026-04-25 04:13 33.93893 -118.39862 123 ft 17 kts 82°
2026-04-25 04:13 33.93910 -118.39692 125 ft 24 kts 83°
2026-04-25 04:14 33.93931 -118.39486 125 ft 24 kts 83°
2026-04-25 04:14 33.93951 -118.39290 125 ft 23 kts 83°
2026-04-25 04:14 33.93970 -118.39102 123 ft 22 kts 83°
2026-04-25 04:14 33.93989 -118.38921 125 ft 22 kts 83°
2026-04-25 04:15 33.94007 -118.38744 125 ft 21 kts 83°
2026-04-25 04:15 33.94024 -118.38572 123 ft 20 kts 83°
2026-04-25 04:15 33.94042 -118.38405 122 ft 20 kts 83°
2026-04-25 04:15 33.94058 -118.38243 125 ft 19 kts 83°
2026-04-25 04:16 33.94075 -118.38088 125 ft 17 kts 83°
2026-04-25 04:16 33.94031 -118.38005 122 ft 14 kts 181°
2026-04-25 04:16 33.93973 -118.38138 125 ft 41 kts 262°
2026-04-25 04:16 33.93898 -118.38861 123 ft 130 kts 263°
2026-04-25 04:17 33.93759 -118.40202 442 ft 177 kts 261°
2026-04-25 04:17 33.93602 -118.41625 1769 ft 167 kts 262°
2026-04-25 04:17 33.93440 -118.42957 2925 ft 160 kts 262°
2026-04-25 04:17 33.93252 -118.44336 3658 ft 171 kts 260°
2026-04-25 04:18 33.93013 -118.45881 3920 ft 210 kts 260°
2026-04-25 04:18 33.92842 -118.47719 4365 ft 223 kts 267°
2026-04-25 04:18 33.92766 -118.49483 4861 ft 208 kts 266°
2026-04-25 04:18 33.92665 -118.51312 5004 ft 237 kts 265°
2026-04-25 04:19 33.92530 -118.53369 5001 ft 251 kts 265°
2026-04-25 04:19 33.92376 -118.55449 4981 ft 249 kts 264°
2026-04-25 04:19 33.92205 -118.57603 5245 ft 266 kts 264°
2026-04-25 04:19 33.92023 -118.59825 6220 ft 267 kts 264°
2026-04-25 04:20 33.91839 -118.62060 7200 ft 268 kts 264°
2026-04-25 04:20 33.91722 -118.64298 8186 ft 268 kts 268°
2026-04-25 04:20 33.91714 -118.66525 9168 ft 269 kts 270°
2026-04-25 04:20 33.91724 -118.68790 10097 ft 272 kts 269°
2026-04-25 04:21 33.91731 -118.71126 10611 ft 290 kts 269°
2026-04-25 04:21 33.91731 -118.73679 10813 ft 317 kts 269°
2026-04-25 04:21 33.91725 -118.76404 11356 ft 329 kts 269°
2026-04-25 04:21 33.91715 -118.79168 11838 ft 329 kts 269°
2026-04-25 04:22 33.91703 -118.81937 11986 ft 333 kts 269°
2026-04-25 04:22 33.91706 -118.84728 12020 ft 335 kts 270°
2026-04-25 04:22 33.91788 -118.87510 12743 ft 336 kts 271°
2026-04-25 04:22 33.91890 -118.90303 13875 ft 330 kts 271°
2026-04-25 04:23 33.91985 -118.93085 14678 ft 332 kts 271°
2026-04-25 04:23 33.92071 -118.95887 15357 ft 337 kts 271°
2026-04-25 04:23 33.92153 -118.98697 16003 ft 342 kts 271°
2026-04-25 04:23 33.92467 -119.01552 16724 ft 347 kts 284°
2026-04-25 04:24 33.93455 -119.04217 17468 ft 352 kts 297°
2026-04-25 04:24 33.94747 -119.06716 18183 ft 356 kts 299°
2026-04-25 04:24 33.96104 -119.09242 18760 ft 360 kts 299°
2026-04-25 04:24 33.97462 -119.11800 19345 ft 363 kts 298°
2026-04-25 04:25 33.98813 -119.14392 19946 ft 365 kts 298°
2026-04-25 04:25 34.00166 -119.17008 20563 ft 368 kts 299°
2026-04-25 04:25 34.01797 -119.19384 21109 ft 380 kts 314°
2026-04-25 04:25 34.03931 -119.21317 21806 ft 383 kts 319°
2026-04-25 04:26 34.06122 -119.23168 22420 ft 385 kts 320°
2026-04-25 04:26 34.08339 -119.25027 22935 ft 389 kts 319°
2026-04-25 04:26 34.10551 -119.26891 23393 ft 394 kts 319°
2026-04-25 04:26 34.12801 -119.28803 23852 ft 397 kts 319°
2026-04-25 04:27 34.15066 -119.30739 24292 ft 400 kts 319°
2026-04-25 04:27 34.17345 -119.32696 24747 ft 402 kts 319°
2026-04-25 04:27 34.19640 -119.34672 25201 ft 404 kts 319°
2026-04-25 04:27 34.21903 -119.36624 25707 ft 404 kts 319°
2026-04-25 04:28 34.24197 -119.38603 26254 ft 404 kts 318°
2026-04-25 04:28 34.26501 -119.40595 26631 ft 408 kts 318°
2026-04-25 04:28 34.28818 -119.42600 26985 ft 411 kts 318°
2026-04-25 04:28 34.31155 -119.44623 27383 ft 414 kts 318°
2026-04-25 04:29 34.33473 -119.46629 27774 ft 416 kts 318°
2026-04-25 04:29 34.35832 -119.48673 28155 ft 418 kts 318°
2026-04-25 04:29 34.38210 -119.50734 28517 ft 420 kts 318°
2026-04-25 04:29 34.40604 -119.52799 28951 ft 423 kts 320°
2026-04-25 04:30 34.43227 -119.54525 29305 ft 435 kts 329°
2026-04-25 04:30 34.46016 -119.55901 29629 ft 440 kts 332°
2026-04-25 04:30 34.48899 -119.57233 29945 ft 443 kts 332°
2026-04-25 04:30 34.51795 -119.58561 30245 ft 445 kts 332°
2026-04-25 04:31 34.54701 -119.59906 30545 ft 447 kts 332°
2026-04-25 04:31 34.57602 -119.61272 30914 ft 446 kts 331°
2026-04-25 04:31 34.60450 -119.62640 31243 ft 445 kts 330°
2026-04-25 04:31 34.63332 -119.64038 31675 ft 443 kts 330°
2026-04-25 04:32 34.66199 -119.65430 32096 ft 442 kts 329°
2026-04-25 04:32 34.69061 -119.66818 32443 ft 442 kts 329°
2026-04-25 04:32 34.71896 -119.68203 32734 ft 443 kts 329°
2026-04-25 04:32 34.74764 -119.69606 33099 ft 442 kts 329°
2026-04-25 04:33 34.77628 -119.71006 33497 ft 441 kts 328°
2026-04-25 04:33 34.80445 -119.72384 33969 ft 439 kts 328°
2026-04-25 04:33 34.83271 -119.73764 34422 ft 435 kts 328°
2026-04-25 04:33 34.86083 -119.75141 34702 ft 435 kts 328°
2026-04-25 04:34 34.88900 -119.76525 34952 ft 436 kts 328°
2026-04-25 04:34 34.91683 -119.77889 35222 ft 436 kts 328°
2026-04-25 04:34 34.94505 -119.79273 35549 ft 434 kts 327°
2026-04-25 04:34 34.97301 -119.80646 35870 ft 432 kts 327°
2026-04-25 04:35 35.00095 -119.82020 36177 ft 431 kts 327°
2026-04-25 04:35 35.02844 -119.83372 36481 ft 431 kts 327°
2026-04-25 04:35 35.05645 -119.84736 36715 ft 434 kts 329°
2026-04-25 04:35 35.08605 -119.85751 36984 ft 447 kts 338°
2026-04-25 04:36 35.11681 -119.86228 37374 ft 455 kts 346°
2026-04-25 04:36 35.14905 -119.86155 37650 ft 465 kts 353°
2026-04-25 04:36 35.18113 -119.85832 37816 ft 469 kts 354°
2026-04-25 04:36 35.21378 -119.85436 37948 ft 471 kts 355°
2026-04-25 04:37 35.24647 -119.85022 37919 ft 470 kts 355°
2026-04-25 04:37 35.31129 -119.84231 37925 ft 465 kts 355°
2026-04-25 04:38 35.37533 -119.83511 37925 ft 463 kts 355°
2026-04-25 04:38 35.43955 -119.82788 37933 ft 460 kts 354°
2026-04-25 04:39 35.50331 -119.82130 37899 ft 459 kts 354°
2026-04-25 04:39 35.56668 -119.81454 37885 ft 459 kts 354°
2026-04-25 04:40 35.63045 -119.80764 37891 ft 459 kts 355°
2026-04-25 04:40 35.68338 -119.80189 37900 ft 460 kts 355°
2026-04-25 04:41 35.74730 -119.79494 37888 ft 461 kts 355°
2026-04-25 04:41 35.81139 -119.78796 37885 ft 463 kts 355°
2026-04-25 04:42 35.87580 -119.78092 37878 ft 464 kts 355°
2026-04-25 04:42 35.93999 -119.77390 37880 ft 465 kts 355°
2026-04-25 04:43 36.00427 -119.76685 37877 ft 466 kts 355°
2026-04-25 04:43 36.06900 -119.75973 37885 ft 466 kts 355°
2026-04-25 04:44 36.13341 -119.75265 37896 ft 466 kts 355°
2026-04-25 04:44 36.19811 -119.74551 37893 ft 465 kts 355°
2026-04-25 04:45 36.26245 -119.73841 37889 ft 463 kts 355°
2026-04-25 04:45 36.32630 -119.73135 37929 ft 461 kts 355°
2026-04-25 04:46 36.39034 -119.72427 37898 ft 460 kts 355°
2026-04-25 04:46 36.45411 -119.71720 37891 ft 459 kts 355°
2026-04-25 04:47 36.51741 -119.71018 37888 ft 457 kts 355°
2026-04-25 04:47 36.58071 -119.70513 37882 ft 444 kts 343°
2026-04-25 04:47 36.60960 -119.71396 37939 ft 422 kts 329°
2026-04-25 04:48 36.63517 -119.73061 37943 ft 409 kts 319°
2026-04-25 04:48 36.68324 -119.76909 37933 ft 410 kts 318°
2026-04-25 04:49 36.73109 -119.80776 37926 ft 413 kts 319°
2026-04-25 04:49 36.77941 -119.84633 37924 ft 415 kts 319°
2026-04-25 04:50 36.82855 -119.88535 37448 ft 423 kts 319°
2026-04-25 04:50 36.85346 -119.90511 36904 ft 422 kts 319°
2026-04-25 04:50 36.87813 -119.92463 36370 ft 419 kts 319°
2026-04-25 04:50 36.90286 -119.94423 35788 ft 418 kts 319°
2026-04-25 04:51 36.92720 -119.96356 35160 ft 419 kts 319°
2026-04-25 04:51 36.95182 -119.98316 34506 ft 420 kts 320°
2026-04-25 04:51 36.97657 -120.00286 33876 ft 420 kts 320°
2026-04-25 04:51 37.00114 -120.02242 33373 ft 416 kts 320°
2026-04-25 04:52 37.02546 -120.04178 32858 ft 412 kts 320°
2026-04-25 04:52 37.04921 -120.06069 32419 ft 406 kts 320°
2026-04-25 04:52 37.07297 -120.07965 31975 ft 401 kts 320°
2026-04-25 04:52 37.09646 -120.09841 31537 ft 397 kts 320°
2026-04-25 04:53 37.11969 -120.11699 31068 ft 393 kts 319°
2026-04-25 04:53 37.14236 -120.13513 30661 ft 388 kts 319°
2026-04-25 04:53 37.16515 -120.15340 30218 ft 384 kts 319°
2026-04-25 04:53 37.18759 -120.17140 29763 ft 380 kts 319°
2026-04-25 04:54 37.20981 -120.18925 29294 ft 376 kts 320°
2026-04-25 04:54 37.23146 -120.20663 28844 ft 371 kts 320°
2026-04-25 04:54 37.25313 -120.22404 28409 ft 367 kts 320°
2026-04-25 04:54 37.27463 -120.24132 27949 ft 364 kts 320°
2026-04-25 04:55 37.29579 -120.25815 27500 ft 363 kts 321°
2026-04-25 04:55 37.31731 -120.27492 27050 ft 364 kts 322°
2026-04-25 04:55 37.33909 -120.29183 26607 ft 371 kts 322°
2026-04-25 04:55 37.36122 -120.30904 26158 ft 377 kts 322°
2026-04-25 04:56 37.38365 -120.32647 25690 ft 377 kts 323°
2026-04-25 04:56 37.40588 -120.34377 25211 ft 375 kts 323°
2026-04-25 04:56 37.42783 -120.36088 24780 ft 374 kts 324°
2026-04-25 04:56 37.44997 -120.37819 24310 ft 374 kts 324°
2026-04-25 04:57 37.47220 -120.39569 23841 ft 375 kts 323°
2026-04-25 04:57 37.49320 -120.41513 23366 ft 372 kts 318°
2026-04-25 04:57 37.51296 -120.43550 22837 ft 371 kts 317°
2026-04-25 04:57 37.53280 -120.45628 22363 ft 370 kts 317°
2026-04-25 04:58 37.55273 -120.47681 21892 ft 369 kts 318°
2026-04-25 04:58 37.57279 -120.49713 21436 ft 368 kts 318°
2026-04-25 04:58 37.59261 -120.51705 20995 ft 368 kts 319°
2026-04-25 04:58 37.61276 -120.53725 20605 ft 366 kts 319°
2026-04-25 04:59 37.63272 -120.55722 20242 ft 364 kts 319°
2026-04-25 04:59 37.65232 -120.57684 19891 ft 363 kts 319°
2026-04-25 04:59 37.67212 -120.59669 19537 ft 362 kts 320°
2026-04-25 04:59 37.69187 -120.61650 19174 ft 361 kts 320°
2026-04-25 05:00 37.71146 -120.63619 18819 ft 358 kts 320°
2026-04-25 05:00 37.73088 -120.65571 18478 ft 354 kts 320°
2026-04-25 05:00 37.75010 -120.67505 18105 ft 352 kts 321°
2026-04-25 05:00 37.76928 -120.69437 17711 ft 351 kts 322°
2026-04-25 05:01 37.78812 -120.71332 17353 ft 350 kts 322°
2026-04-25 05:01 37.80718 -120.73251 16992 ft 349 kts 322°
2026-04-25 05:01 37.82615 -120.75162 16643 ft 348 kts 322°
2026-04-25 05:01 37.84508 -120.77073 16300 ft 347 kts 322°
2026-04-25 05:02 37.86397 -120.78981 15958 ft 346 kts 322°
2026-04-25 05:02 37.88257 -120.80867 15620 ft 346 kts 322°
2026-04-25 05:02 37.90136 -120.82776 15277 ft 345 kts 322°
2026-04-25 05:02 37.92012 -120.84683 14936 ft 345 kts 322°
2026-04-25 05:03 37.93878 -120.86582 14597 ft 344 kts 322°
2026-04-25 05:03 37.95749 -120.88486 14257 ft 344 kts 321°
2026-04-25 05:03 37.97594 -120.90367 13936 ft 344 kts 321°
2026-04-25 05:03 37.99460 -120.92269 13578 ft 343 kts 321°
2026-04-25 05:04 38.01320 -120.94167 13189 ft 341 kts 321°
2026-04-25 05:04 38.03164 -120.96048 12841 ft 337 kts 321°
2026-04-25 05:04 38.04983 -120.97906 12498 ft 333 kts 321°
2026-04-25 05:04 38.06763 -120.99724 12163 ft 329 kts 321°
2026-04-25 05:05 38.08457 -121.01656 11835 ft 325 kts 313°
2026-04-25 05:05 38.09927 -121.03810 11606 ft 320 kts 309°
2026-04-25 05:05 38.11344 -121.06005 11293 ft 322 kts 309°
2026-04-25 05:05 38.12756 -121.08181 10980 ft 321 kts 309°
2026-04-25 05:06 38.14185 -121.10339 10659 ft 318 kts 310°
2026-04-25 05:06 38.15614 -121.12465 10339 ft 314 kts 310°
2026-04-25 05:06 38.17024 -121.14551 10037 ft 308 kts 310°
2026-04-25 05:06 38.18377 -121.16550 9960 ft 293 kts 310°
2026-04-25 05:07 38.19700 -121.18498 9566 ft 294 kts 310°
2026-04-25 05:07 38.21043 -121.20474 9173 ft 295 kts 310°
2026-04-25 05:07 38.22405 -121.22402 8975 ft 289 kts 314°
2026-04-25 05:07 38.23805 -121.24193 8838 ft 282 kts 315°
2026-04-25 05:08 38.25188 -121.25921 8730 ft 275 kts 316°
2026-04-25 05:08 38.26532 -121.27595 8618 ft 271 kts 316°
2026-04-25 05:08 38.27885 -121.29285 8522 ft 271 kts 315°
2026-04-25 05:08 38.29235 -121.30980 8421 ft 272 kts 315°
2026-04-25 05:09 38.30591 -121.32689 8324 ft 276 kts 315°
2026-04-25 05:09 38.31942 -121.34396 8216 ft 278 kts 315°
2026-04-25 05:09 38.33316 -121.36136 8112 ft 278 kts 315°
2026-04-25 05:09 38.34686 -121.37873 8014 ft 277 kts 315°
2026-04-25 05:10 38.36053 -121.39608 7900 ft 277 kts 315°
2026-04-25 05:10 38.37419 -121.41344 7791 ft 276 kts 315°
2026-04-25 05:10 38.38784 -121.43079 7693 ft 276 kts 315°
2026-04-25 05:10 38.40128 -121.44789 7588 ft 276 kts 314°
2026-04-25 05:11 38.41492 -121.46525 7486 ft 276 kts 314°
2026-04-25 05:11 38.42852 -121.48257 7386 ft 276 kts 314°
2026-04-25 05:11 38.44212 -121.49991 7278 ft 276 kts 314°
2026-04-25 05:12 38.46907 -121.53431 7077 ft 275 kts 315°
2026-04-25 05:12 38.48309 -121.55105 6886 ft 275 kts 320°
2026-04-25 05:12 38.49812 -121.56608 6675 ft 273 kts 323°
2026-04-25 05:12 38.51321 -121.58077 6476 ft 272 kts 323°
2026-04-25 05:13 38.52820 -121.59551 6273 ft 271 kts 322°
2026-04-25 05:13 38.54286 -121.61011 6051 ft 270 kts 322°
2026-04-25 05:13 38.55762 -121.62491 5841 ft 269 kts 322°
2026-04-25 05:13 38.57236 -121.63975 5626 ft 267 kts 321°
2026-04-25 05:14 38.58785 -121.65272 5399 ft 267 kts 338°
2026-04-25 05:14 38.60537 -121.65962 5227 ft 266 kts 345°
2026-04-25 05:14 38.62322 -121.66595 5010 ft 266 kts 345°
2026-04-25 05:15 38.65871 -121.67911 4690 ft 259 kts 344°
2026-04-25 05:15 38.67559 -121.68557 4558 ft 253 kts 344°
2026-04-25 05:15 38.69226 -121.69197 4475 ft 245 kts 343°
2026-04-25 05:15 38.70848 -121.69820 4269 ft 243 kts 343°
2026-04-25 05:16 38.72502 -121.70212 4052 ft 240 kts
2026-04-25 05:16 38.74158 -121.70181 3809 ft 239 kts
2026-04-25 05:16 38.75833 -121.70091 3563 ft 239 kts
2026-04-25 05:16 38.77490 -121.69988 3346 ft 238 kts
2026-04-25 05:17 38.79155 -121.69888 3083 ft 240 kts
2026-04-25 05:17 38.80795 -121.69815 3023 ft 238 kts
2026-04-25 05:17 38.82452 -121.69729 3000 ft 238 kts
2026-04-25 05:17 38.84097 -121.69641 2981 ft 233 kts
2026-04-25 05:18 38.85706 -121.69562 2983 ft 229 kts
2026-04-25 05:18 38.87296 -121.69488 2995 ft 228 kts
2026-04-25 05:18 38.88870 -121.69416 2990 ft 229 kts
2026-04-25 05:18 38.90465 -121.69341 3000 ft 229 kts
2026-04-25 05:19 38.92002 -121.68913 2980 ft 227 kts 35°
2026-04-25 05:19 38.92978 -121.67397 3001 ft 221 kts 76°
2026-04-25 05:19 38.92931 -121.65493 3007 ft 213 kts 117°
2026-04-25 05:19 38.92088 -121.64039 3014 ft 198 kts 133°
2026-04-25 05:20 38.91214 -121.62749 2993 ft 183 kts 133°
2026-04-25 05:20 38.90385 -121.61528 3000 ft 180 kts 133°
2026-04-25 05:20 38.89564 -121.60321 3007 ft 179 kts 133°
2026-04-25 05:20 38.88756 -121.59135 3009 ft 179 kts 133°
2026-04-25 05:21 38.87865 -121.58040 2987 ft 177 kts 154°
2026-04-25 05:21 38.86668 -121.57834 3012 ft 177 kts 180°
2026-04-25 05:21 38.85409 -121.57800 2911 ft 183 kts 178°
2026-04-25 05:21 38.84127 -121.57786 2687 ft 185 kts 179°
2026-04-25 05:22 38.82863 -121.57800 2433 ft 175 kts 180°
2026-04-25 05:22 38.81688 -121.57820 2192 ft 162 kts 181°
2026-04-25 05:22 38.80601 -121.57838 2006 ft 151 kts 181°
2026-04-25 05:22 38.79572 -121.57856 1795 ft 143 kts 181°
2026-04-25 05:23 38.78586 -121.57872 1600 ft 140 kts 182°
2026-04-25 05:23 38.77766 -121.57886 1462 ft 139 kts 182°
2026-04-25 05:23 38.76799 -121.57902 1257 ft 137 kts 181°
2026-04-25 05:23 38.75838 -121.57918 1078 ft 140 kts 181°
2026-04-25 05:24 38.74858 -121.57932 880 ft 141 kts 180°
2026-04-25 05:24 38.73881 -121.57955 680 ft 140 kts 182°
2026-04-25 05:24 38.72923 -121.57984 518 ft 137 kts 180°
2026-04-25 05:24 38.71961 -121.57987 351 ft 138 kts 179°
2026-04-25 05:25 38.70990 -121.58004 139 ft 140 kts 180°
2026-04-25 05:25 38.70057 -121.58015 35 ft 125 kts 180°
2026-04-25 05:25 38.69400 -121.58029 31 ft 63 kts 181°
2026-04-25 05:25 38.69197 -121.58067 31 ft 15 kts 230°
2026-04-25 05:26 38.69115 -121.58147 33 ft 15 kts 208°
2026-04-25 05:26 38.69060 -121.58186 34 ft 12 kts 212°
2026-04-25 05:26 38.69039 -121.58272 34 ft 11 kts 303°
2026-04-25 05:26 38.69139 -121.58296 32 ft 12 kts 355°
2026-04-25 05:27 38.69181 -121.58336 32 ft 12 kts 290°
2026-04-25 05:27 38.69186 -121.58439 32 ft 12 kts 270°
2026-04-25 05:27 38.69187 -121.58539 32 ft 9 kts 271°
2026-04-25 05:27 38.69197 -121.58609 31 ft 8 kts 295°
2026-04-25 05:28 38.69224 -121.58654 31 ft 4 kts 318°
2026-04-25 05:28 38.69228 -121.58659 31 ft 0 kts 319°